EW9733 Weather Reports


time (UTC)temp
C
wind
direction
speed
KPH
gust
KPH
rain 1hr
cm
rain 24hr
cm
rain mn
cm
humidity
%
barometer
mb
20260505084600 10 163 1.6 9.7 0.00 0.00 0.00 86 1009.4
20260505083105 10 150 1.6 9.7 0.00 0.00 0.00 85 1009.3
20260505081558 10 186 0.0 11.3 0.00 0.00 0.00 85 1009.5
20260505080056 10 213 1.6 12.9 0.00 0.00 0.00 85 1009.5
20260505074554 10 215 1.6 12.9 0.00 0.00 0.00 85 1009.6
20260505073057 10 149 1.6 11.3 0.00 0.00 0.00 84 1009.6
20260505071555 10 129 0.0 14.5 0.00 0.00 0.00 84 1009.6
20260505070051 10 196 1.6 16.1 0.00 0.00 0.00 84 1009.6
20260505064549 10 172 0.0 12.9 0.00 0.00 0.00 83 1009.7
20260505063048 10 147 1.6 9.7 0.00 0.00 0.00 82 1009.7
20260505061548 10 161 0.0 9.7 0.00 0.00 0.00 82 1009.8
20260505060045 11 140 0.0 6.4 0.00 0.00 0.00 81 1009.9
20260505054545 11 207 1.6 8.0 0.00 0.00 0.00 80 1009.8
20260505053046 11 184 0.0 17.7 0.00 0.00 0.00 80 1009.7
20260505051539 11 279 1.6 11.3 0.00 0.00 0.00 79 1009.8
20260505041531 11 267 3.2 12.9 0.00 0.00 0.00 75 1009.9
20260505040029 11 156 4.8 19.3 0.00 0.00 0.00 74 1009.8
20260505034528 12 221 1.6 17.7 0.00 0.00 0.00 73 1009.9
20260505033042 12 151 3.2 11.3 0.00 0.00 0.00 71 1009.8
20260505031527 12 104 1.6 11.3 0.00 0.00 0.00 70 1009.8
20260505030029 12 209 4.8 14.5 0.00 0.00 0.00 69 1010.0
20260505024528 12 196 1.6 19.3 0.00 0.00 0.00 69 1009.9
20260505023024 12 174 3.2 16.1 0.00 0.00 0.00 68 1009.9
20260505021523 12 159 6.4 16.1 0.00 0.00 0.00 68 1009.9
20260505020024 13 188 3.2 14.5 0.00 0.00 0.00 66 1009.9
20260505014522 13 167 4.8 12.9 0.00 0.00 0.00 65 1009.9
20260505013021 13 179 3.2 14.5 0.00 0.00 0.00 63 1009.8
20260505011522 13 138 1.6 12.9 0.00 0.00 0.00 62 1009.5
20260505010021 13 190 3.2 20.9 0.00 0.00 0.00 60 1009.3
20260505004536 13 182 6.4 14.5 0.00 0.00 0.00 58 1008.9
20260505003019 14 207 8.0 19.3 0.00 0.00 0.00 56 1008.6
20260505001521 15 184 4.8 14.5 0.00 0.00 0.00 54 1008.1
20260505000022 15 186 3.2 17.7 0.00 0.00 0.00 53 1008.1
20260504234527 16 157 3.2 16.1 0.00 0.00 0.00 51 1007.9
20260504233017 16 210 6.4 25.7 0.00 0.00 0.00 49 1007.7
20260504231532 16 211 8.0 29.0 0.00 0.00 0.00 47 1007.3
20260504230016 17 227 3.2 14.5 0.00 0.00 0.00 48 1007.0
20260504224516 17 193 9.7 22.5 0.00 0.00 0.00 47 1006.8
20260504223016 17 204 8.0 25.7 0.00 0.00 0.00 46 1006.8
20260504221513 18 196 8.0 19.3 0.00 0.00 0.00 46 1006.5
20260504220013 18 214 8.0 19.3 0.00 0.00 0.00 44 1006.5
20260504214516 18 157 9.7 22.5 0.00 0.00 0.00 44 1006.3
20260504213012 19 190 6.4 32.2 0.00 0.00 0.00 42 1006.3
20260504211513 20 186 4.8 24.1 0.00 0.00 0.00 41 1006.2
20260504210014 20 180 8.0 29.0 0.00 0.00 0.00 40 1006.3
20260504204513 20 188 6.4 22.5 0.00 0.00 0.00 40 1006.1
20260504203013 20 174 9.7 19.3 0.00 0.00 0.00 35 1006.2
20260504201508 21 119 8.0 17.7 0.00 0.00 0.00 32 1006.2
20260504200013 21 198 6.4 24.1 0.00 0.00 0.00 31 1006.1
20260504194510 21 178 4.8 25.7 0.00 0.00 0.00 35 1006.1
20260504193015 21 213 3.2 20.9 0.00 0.00 0.00 33 1006.2
20260504191507 21 55 3.2 22.5 0.00 0.00 0.00 33 1006.2
20260504190009 21 189 4.8 19.3 0.00 0.00 0.00 31 1006.3
20260504184503 22 343 1.6 12.9 0.00 0.00 0.00 35 1006.4
20260504183001 21 274 3.2 20.9 0.00 0.00 0.00 36 1006.5
20260504181600 21 198 8.0 17.7 0.00 0.00 0.00 30 1006.6
20260504180100 21 200 11.3 19.3 0.00 0.00 0.00 33 1006.8
20260504174557 21 304 6.4 22.5 0.00 0.00 0.00 33 1006.8
20260504173057 20 183 4.8 19.3 0.00 0.00 0.00 36 1006.8
20260504171555 20 178 6.4 20.9 0.00 0.00 0.00 32 1006.7